Sergeant Bluff, IA

9:13 PM CST on February 19, 2017 (GMT -0600)
Sioux Gateway

Weather History for KSUX - November, 2012

Change the Weather History Date:

Sunday, November 11, 2012

  Actual Average Record
Temperature  
Mean Temperature 27 °F 38 °F  
Max Temperature 34 °F 49 °F 77 °F (1971)
Min Temperature 20 °F 28 °F -8 °F (1986)
Degree Days  
Heating Degree Days 38 27  
Month to date heating degree days 250 262  
Since 1 July heating degree days 931 862  
Cooling Degree Days 0 0  
Month to date cooling degree days 0 0  
Year to date cooling degree days 1249 869  
Moisture  
Dew Point 17 °F    
Average Humidity 71    
Maximum Humidity 89    
Minimum Humidity 53    
Precipitation  
Precipitation 0.00 in 0.04 in 1.65 in (2015)
Month to date precipitation 1.07 0.48  
Year to date precipitation 22.45 26.11  
Snow  
Snow 0.00 in 0.10 in 6.60 in (1889)
Month to date snowfall 0.0 1.0  
Since 1 July snowfall 0.1 2.0  
Since 1 September snowfall 0.1 2.0  
Snow Depth 0.00 in    
Sea Level Pressure  
Sea Level Pressure 29.98 in    
Wind  
Wind Speed 19 mph (NW)    
Max Wind Speed 31 mph    
Max Gust Speed 40 mph    
Visibility 10 miles    
Events      
T = Trace of Precipitation, MM = Missing Value Source: NWS Daily Summary

Daily Weather History Graph

Daily Weather History Graph

Search for Another Location

Airport or City:

Trip Planner

Search our weather history database for the weather conditions in past years. The results will help you decide how hot, cold, wet, or windy it might be!

Date:

Astronomy

Nov. 11, 2012 Rise Set
Actual Time 7:12 AM CST 5:06 PM CST
Civil Twilight 6:42 AM CST 5:36 PM CST
Nautical Twilight 6:08 AM CST 6:10 PM CST
Astronomical Twilight 5:35 AM CST 6:43 PM CST
Moon 4:24 AM CST (11/11) 3:32 PM CST (11/11)
Length of Visible Light 10h 54m
Length of Day
9h 54m
Waning Crescent, 7% of the Moon is Illuminated
Nov 11
Waning Crescent
Nov 13
New
Nov 20
First Quarter
Nov 28
Full
Dec 6
Last Quarter

Hourly Weather History & Observations

Time (CST) Temp. Windchill Dew Point Humidity Pressure Visibility Wind Dir Wind Speed Gust Speed Precip Events Conditions
12:24 AM 33.8 °F 21.9 °F 28.4 °F 81% 29.71 in 10.0 mi NW 21.9 mph 31.1 mph N/A   Overcast
12:52 AM 30.9 °F 17.8 °F 27.0 °F 85% 29.73 in 10.0 mi NW 23.0 mph 32.2 mph N/A   Overcast
1:52 AM 30.9 °F 19.1 °F 26.1 °F 82% 29.78 in 10.0 mi NW 18.4 mph 31.1 mph N/A   Overcast
2:52 AM 30.0 °F 15.4 °F 25.0 °F 82% 29.78 in 10.0 mi NW 27.6 mph 34.5 mph N/A   Overcast
3:52 AM 28.0 °F 13.9 °F 21.9 °F 78% 29.83 in 10.0 mi NW 23.0 mph 33.4 mph N/A   Overcast
4:52 AM 27.0 °F 13.2 °F 21.0 °F 78% 29.85 in 10.0 mi NW 20.7 mph 29.9 mph N/A   Overcast
5:52 AM 26.1 °F 10.7 °F 19.9 °F 78% 29.86 in 10.0 mi NNW 25.3 mph 34.5 mph N/A   Overcast
6:52 AM 25.0 °F 10.2 °F 18.0 °F 75% 29.90 in 10.0 mi NW 21.9 mph 33.4 mph N/A   Overcast
7:52 AM 24.1 °F 8.0 °F 17.1 °F 75% 29.94 in 10.0 mi NW 25.3 mph 31.1 mph N/A   Overcast
8:28 AM 24.8 °F 9.6 °F 15.8 °F 69% 29.92 in 10.0 mi NW 23.0 mph 33.4 mph N/A   Overcast
8:52 AM 24.1 °F 8.3 °F 16.0 °F 71% 29.97 in 10.0 mi NW 24.2 mph 36.8 mph N/A   Overcast
9:52 AM 23.0 °F 6.9 °F 14.0 °F 68% 29.96 in 10.0 mi NW 24.2 mph - N/A   Overcast
10:52 AM 24.1 °F 8.0 °F 15.1 °F 69% 29.98 in 10.0 mi NW 25.3 mph 29.9 mph N/A   Clear
11:52 AM 26.6 °F 12.0 °F 15.8 °F 64% 29.93 in 10.0 mi NW 23.0 mph 33.4 mph N/A   Clear
12:52 PM 27.0 °F 12.8 °F 15.1 °F 61% 30.00 in 10.0 mi NW 21.9 mph 27.6 mph N/A   Clear
1:52 PM 28.0 °F 15.3 °F 16.0 °F 61% 29.99 in 10.0 mi NW 18.4 mph 26.5 mph N/A   Clear
2:52 PM 28.9 °F 15.8 °F 14.0 °F 54% 30.00 in 10.0 mi WNW 20.7 mph 31.1 mph N/A   Clear
3:52 PM 28.0 °F 13.9 °F 14.0 °F 56% 30.01 in 10.0 mi WNW 23.0 mph 31.1 mph N/A   Clear
4:52 PM 26.1 °F 13.1 °F 12.9 °F 58% 30.05 in 10.0 mi WNW 17.3 mph 21.9 mph N/A   Clear
5:52 PM 25.0 °F 11.7 °F 12.0 °F 58% 30.08 in 10.0 mi NW 17.3 mph 23.0 mph N/A   Clear
6:52 PM 24.1 °F 12.5 °F 12.9 °F 62% 30.12 in 10.0 mi WNW 12.7 mph - N/A   Clear
7:52 PM 23.0 °F 11.1 °F 12.9 °F 65% 30.14 in 10.0 mi WNW 12.7 mph - N/A   Clear
8:52 PM 21.9 °F 12.5 °F 14.0 °F 72% 30.15 in 10.0 mi WNW 8.1 mph - N/A   Clear
9:52 PM 19.9 °F 10.1 °F 12.9 °F 74% 30.17 in 10.0 mi WNW 8.1 mph - N/A   Clear
10:52 PM 19.9 °F 10.1 °F 12.9 °F 74% 30.18 in 10.0 mi West 8.1 mph - N/A   Clear
11:52 PM 19.9 °F 10.1 °F 12.9 °F 74% 30.19 in 10.0 mi West 8.1 mph - N/A   Clear